Volver al catálogo

STARLINK-3559

ActivoComunicacionesVLEO
NORAD 51860·PAYLOAD·🇺🇸 United States

Lanzado Mar 3, 2022 desde Cape Canaveral Space Force Station

Loading…

Próximos Pases (próximas 24 horas)

TLE

ActualizadoSource: CelesTrak SupGP

Época: Sep 14, 2026, 21:42 UTC

1 51860C 22022J   26257.90465278  .00026104  00000+0  77124-3 0  2574
2 51860  53.1591 229.5723 0001341  96.2147  71.1687 15.34377766    14

Sigue STARLINK-3559 en tiempo real con AllMySat

Download on the App Store